www.pogodaiklimat.ru
ПОГОДА в Густавсфорсе
Время
(UTC), дата
13 3.12
14 3.12
15 3.12
16 3.12
18 3.12
19 3.12
20 3.12
21 3.12
22 3.12
23 3.12
00 4.12
01 4.12
02 4.12
03 4.12
04 4.12
05 4.12
06 4.12
07 4.12
08 4.12
09 4.12
11 4.12
12 4.12
13 4.12
14 4.12
15 4.12
16 4.12
17 4.12
18 4.12
19 4.12
20 4.12
21 4.12
22 4.12
23 4.12
00 5.12
01 5.12
02 5.12
03 5.12
04 5.12
05 5.12
06 5.12
07 5.12
08 5.12
09 5.12
10 5.12
11 5.12
12 5.12
13 5.12
14 5.12
15 5.12
16 5.12
17 5.12
18 5.12
19 5.12
20 5.12
21 5.12
22 5.12
23 5.12
00 6.12
01 6.12
02 6.12
03 6.12
04 6.12
05 6.12
06 6.12
07 6.12
08 6.12
09 6.12
10 6.12
11 6.12
12 6.12
13 6.12
14 6.12
15 6.12
16 6.12
17 6.12
18 6.12
19 6.12
20 6.12
21 6.12
22 6.12
23 6.12
00 7.12
01 7.12
02 7.12
03 7.12
04 7.12
05 7.12
06 7.12
07 7.12
08 7.12
09 7.12
10 7.12
11 7.12
12 7.12
13 7.12
14 7.12
15 7.12
16 7.12
17 7.12
18 7.12
19 7.12
20 7.12
21 7.12
22 7.12
23 7.12
00 8.12
01 8.12
02 8.12
03 8.12
04 8.12
05 8.12
06 8.12
07 8.12
08 8.12
09 8.12
10 8.12
11 8.12
12 8.12
13 8.12
14 8.12
15 8.12
16 8.12
17 8.12
18 8.12
19 8.12
20 8.12
21 8.12
22 8.12
23 8.12
00 9.12
01 9.12
02 9.12
03 9.12
04 9.12
05 9.12
06 9.12
07 9.12
08 9.12
09 9.12
10 9.12
11 9.12
12 9.12
13 9.12
14 9.12
15 9.12
16 9.12
17 9.12
18 9.12
19 9.12
20 9.12
21 9.12
22 9.12
23 9.12
00 10.12
01 10.12
02 10.12
03 10.12
04 10.12
05 10.12
06 10.12
07 10.12
08 10.12
09 10.12
10 10.12
11 10.12
12 10.12
13 10.12
Ветер
(напр.,м/с)
Видим. Явления Облачность Т
(С)
Тd
(С)
f
(%)
Тe
(С)
Тes
(С)
Комфортность P
(гПа)
Po
(гПа)
Тmin
(С)
Tmax
(С)
R
(мм)
R24
(мм)
S
(см)
С 1
{1}
21 км осадки 10/10 150 м
[]
-4.8 -5.4 96 -7 -7 холодно 1008.3 984.8 0.2
штиль 0
{1}
50 км в посл. час снег 10/10 90 м
[]
-4.4 -5.1 95 -6 -6 холодно 1007.3 983.8 0.0
штиль 0
{1}
19 км {снег, осадки} 10/10 60 м
[]
-4.0 -4.6 96 -5 -5 холодно 1007.0 983.5
штиль 0
{1}
1800 м дымка {снег, осадки} ?/? -3.8 -4.1 98 -5 -5 холодно 1006.8 983.4
штиль 0
{1}
4900 м дымка {снег, осадки} ?/? -3.6 -4.1 96 -5 -5 холодно 1007.9 984.5 -15.0 -3.5
штиль 0
{1}
6000 м дымка 10/1 150 м
[]
-3.5 -3.9 97 -5 -5 холодно 1008.1 984.7
штиль 0
{1}
н/о дымка 4/4
[]
-4.1 -4.6 96 -5 -5 холодно 1008.3 984.8
штиль 0
{1}
7000 м ливневой дождь {осадки} 9/3 1500 м
[]
-3.8 -4.3 96 -5 -5 холодно 1008.2 984.8 0.1
штиль 0
{1}
9000 м осадки {ливн. осадки} 10/10 2000 м
[]
-2.4 -2.7 98 -4 -4 прохладно 1008.5 985.1 0.3
штиль 0
{1}
13 км в посл. час осадки {ливн. осадки} 10/1
[]
-2.8 -3.2 97 -4 -4 прохладно 1008.4 985.0
штиль 0
{1}
18 км {ливн. осадки, дождь} 3/0
[]
-3.7 -4.2 96 -5 -5 холодно 1008.4 985.0
штиль 0
{1}
35 км ясно -4.7 -5.3 96 -6 -6 холодно 1009.0 985.5
штиль 0
{1}
45 км 10/10 90 м
[]
-5.0 -5.5 96 -6 -6 холодно 1008.7 985.2
штиль 0
{1}
50 км ?/? -4.7 -5.2 96 -6 -6 холодно 1008.9 985.3
штиль 0
{1}
н/о туман ?/? -5.1 -5.4 98 -6 -6 холодно 1009.1 985.6
штиль 0
{1}
8000 м в посл. час туман ?/? -5.6 -6.3 95 -7 -7 холодно 1009.1 985.5
штиль 0
{1}
1900 м в посл. час туман ?/? -5.9 -6.2 98 -7 -7 холодно 1008.8 985.2 -5.9 -2.2
штиль 0
{1}
35 км {дымка} 3/0
[]
-6.7 -7.5 94 -8 -8 очень
холодно
1009.2 985.5
штиль 0
{1}
50 км {дымка} ?/? -7.2 -8.0 94 -8 -8 очень
холодно
1009.6 985.9
штиль 0
{1}
50 км {дымка} ?/? -6.7 -7.5 94 -8 -8 очень
холодно
1009.9 986.3
штиль 0
{1}
600 м туман ?/? -3.5 -3.7 99 -5 -5 холодно 1009.3 985.8
З 1
{2}
1400 м в посл. час туман ?/? -2.6 -2.8 99 -5 -5 холодно 1009.3 985.9
штиль 0
{1}
2800 м в посл. час туман ?/? -2.0 -2.2 99 -3 -3 прохладно 1008.7 985.3
штиль 0
{1}
3600 м дымка {туман} ?/? -2.1 -2.3 99 -3 -3 прохладно 1008.7 985.3
штиль 0
{1}
1100 м в посл. час туман ?/? -2.0 -2.1 99 -3 -3 прохладно 1008.5 985.1
штиль 0
{1}
500 м туман ?/? -1.8 -1.9 99 -3 -3 прохладно 1008.2 984.8
штиль 0
{1}
4500 м в посл. час туман ?/? -1.6 -1.8 99 -3 -3 прохладно 1007.6 984.3
штиль 0
{1}
7000 м дымка {туман} 10/10 180 м
[]
-1.1 -1.3 99 -3 -3 прохладно 1007.1 983.8 -7.2 -1.1
Ю 3
{6}
13 км {дымка} 10/10 150 м
[]
+1.9 +1.7 99 -3 -3 прохладно 1006.3 983.2
Ю 3
{6}
11 км {дымка} 10/10 120 м
[]
+2.4 +2.2 99 -2 -2 по сезону 1005.3 982.2
ЮЗ 4
{7}
14 км {дымка} н/о +2.6 +2.3 98 -2 -2 по сезону 1004.6 981.5
Ю 3
{8}
20 км {дымка} 10/10 210 м
[]
+2.9 +2.1 94 -1 -1 по сезону 1004.5 981.4
Ю 4
{9}
26 км {дымка} 10/10 330 м
[]
+3.9 +3.0 94 -1 -1 по сезону 1003.7 980.8
ЮЗ 4
{9}
29 км 10/10 450 м
[]
+4.2 +2.9 91 -0 -0 по сезону 1003.4 980.5
ЮЗ 4
{10}
29 км 10/9 480 м
[]
+4.3 +2.8 90 -0 -0 по сезону 1002.8 979.9
ЮЗ 3
{10}
26 км 10/10 400 м
[]
+4.1 +2.9 92 0 0 по сезону 1002.4 979.5
ЮЗ 5
{9}
30 км 10/10 420 м
[]
+4.5 +3.3 92 -1 -1 по сезону 1001.6 978.7
ЮЗ 4
{7}
28 км 10/10 400 м
[]
+4.5 +3.4 93 0 0 по сезону 1001.4 978.5
ЮЗ 3
{8}
30 км 10/6 480 м
[]
+4.4 +3.4 93 +1 +1 по сезону 1000.5 977.6
ЮЗ 4 35 км 10/10 600 м
[]
+4.7 +3.5 92 0 0 по сезону 999.8 977.0 -1.1 +4.8
ЮЗ 3
{8}
30 км 10/9 630 м
[]
+4.7 +2.8 87 +1 +1 по сезону 999.6 976.8
ЮЗ 3
{8}
26 км 10/10 600 м
[]
+4.4 +2.4 87 +1 +1 по сезону 999.4 976.6
ЮЗ 4
{10}
23 км 10/9 600 м
[]
+4.4 +2.0 84 0 0 по сезону 998.8 976.0
ЮЗ 4
{7}
19 км 10/9 700 м
[]
+4.6 +1.7 81 0 0 по сезону 997.8 975.0
ЮЗ 4
{11}
25 км 10/9 750 м
[]
+5.1 +1.7 79 +1 +1 по сезону 996.7 974.0
ЮЗ 3
{8}
30 км 10/10 660 м
[]
+4.9 +1.4 78 +2 +2 по сезону 996.0 973.3
Ю 4
{8}
35 км 10/10 700 м
[]
+4.6 +1.1 78 +1 +1 по сезону 994.8 972.1
ЮЗ 4
{8}
30 км 10/10 700 м
[]
+4.8 +1.3 78 +1 +1 по сезону 994.2 971.5
ЮЗ 5
{9}
28 км 10/10 720 м
[]
+5.2 +1.4 76 +1 +1 по сезону 993.4 970.8
ЮЗ 6
{11}
35 км 10/10 720 м
[]
+5.2 +1.5 77 0 0 по сезону 992.6 970.0
ЮЗ 6
{11}
29 км 10/9 800 м
[]
+5.5 +1.7 76 +1 +1 по сезону 992.0 969.5
ЮЗ 5
{11}
27 км 10/9 750 м
[]
+5.8 +1.9 76 +2 +2 по сезону 991.9 969.3 +3.9 +5.8
ЮЗ 5
{11}
28 км 9/9 750 м
[]
+5.9 +2.2 77 +2 +2 по сезону 991.5 969.0
ЮЗ 6
{11}
26 км 10/10 700 м
[]
+6.0 +2.4 78 +1 +1 по сезону 990.8 968.3
ЮЗ 4
{10}
30 км 10/10 660 м
[]
+5.9 +2.6 79 +2 +2 по сезону 990.4 967.9
Ю 3
{7}
30 км 10/10 570 м
[]
+5.9 +2.8 80 +3 +3 по сезону 989.8 967.3
Ю 3
{8}
16 км слаб. дождь 10/10 480 м
[]
+5.3 +3.7 89 +2 +2 по сезону 988.8 966.3 0.0
Ю 4
{10}
13 км слаб. дождь 10/8 270 м
[]
+4.6 +3.7 94 0 0 по сезону 987.9 965.4 0.3
Ю 4
{8}
12 км слаб. дождь 10/10 210 м
[]
+4.1 +3.5 96 -1 -1 по сезону 986.8 964.3 1
Ю 3
{7}
11 км слаб. дождь 10/10 210 м
[]
+3.6 +3.2 97 -1 -1 по сезону 985.7 963.1 1
Ю 3
{7}
10 км дождь 10/10 210 м
[]
+3.5 +3.1 97 -1 -1 по сезону 984.5 961.9 2
Ю 1
{4}
10 км слаб. дождь 10/10 180 м
[]
+3.5 +3.4 99 +2 +2 по сезону 983.5 961.0 1
Ю 1 13 км слаб. дождь ?/? +3.8 +3.6 99 +2 +2 по сезону 982.9 960.4 0.8
ЮЗ 2 45 км в посл. час дождь 10/6 120 м
[]
+3.9 +3.7 99 +1 +1 по сезону 982.4 960.0 +3.5 +6.1 0.2
ЮЗ 2
{4}
50 км 10/6 90 м
[]
+4.0 +3.8 99 +1 +1 по сезону 983.1 960.6
ЮЗ 1
{5}
50 км 10/10 240 м
[]
+4.4 +4.0 97 +3 +3 по сезону 984.3 961.8
ЮЗ 1
{3}
50 км 10/10 210 м
[]
+4.4 +4.0 97 +3 +3 по сезону 985.1 962.6
ЮЗ 1
{3}
50 км 10/10 330 м
[]
+4.6 +4.2 97 +3 +3 по сезону 985.8 963.3
З 1
{4}
50 км 10/10 360 м
[]
+4.9 +4.0 94 +3 +3 по сезону 987.1 964.6
ЮЗ 1
{3}
50 км 10/3 400 м
[]
+3.7 +2.9 95 +2 +2 по сезону 987.6 965.0
ЮЗ 1
{3}
50 км 3/1
[]
+2.5 +2.1 97 +1 +1 по сезону 988.2 965.5
штиль 0
{2}
1000 м дымка ясно +0.3 +0.3 100 -1 -1 по сезону 988.6 965.8
штиль 0
{1}
40 км {дымка} 10/10
[]
-0.4 -0.5 99 -2 -2 по сезону 988.8 965.9
штиль 0
{2}
40 км {дымка} 10/6 120 м
[]
-0.3 -0.4 99 -2 -2 по сезону 989.0 966.1
штиль 0
{1}
35 км {дымка} 10/10 90 м
[]
-0.1 -0.2 99 -2 -2 по сезону 989.1 966.2
С 1
{1}
4700 м дымка ?/? +0.3 +0.2 99 -2 -2 по сезону 989.1 966.2 -0.5 +5.1
штиль 0
{1}
600 м туман ?/? +0.5 +0.4 99 -1 -1 по сезону 989.1 966.3
штиль 0
{1}
2700 м в посл. час туман 10/10 120 м
[]
+0.8 +0.6 99 -1 -1 по сезону 988.9 966.0
штиль 0
{1}
9000 м дымка {туман} 10/10 210 м
[]
+0.8 +0.7 99 -1 -1 по сезону 988.6 965.8
штиль 0
{1}
11 км {туман, метель} 10/10 210 м
[]
+0.9 +0.8 99 -1 -1 по сезону 987.9 965.1
штиль 0
{1}
13 км {туман, метель} 10/10 270 м
[]
+1.0 +0.9 99 -0 -0 по сезону 987.2 964.4
штиль 0
{1}
7000 м слаб. дождь {осадки} 10/8 120 м
[]
+1.0 +0.9 99 -0 -0 по сезону 986.8 964.0 0.2
штиль 0
{1}
4200 м дождь ?/? +1.1 +1.0 99 -0 -0 по сезону 986.2 963.4 0.9
штиль 0
{1}
2900 м дождь 10/10 450 м
[]
+1.6 +1.5 99 0 0 по сезону 985.6 962.9 3
штиль 0
{2}
3200 м дождь ?/? +1.7 +1.5 99 0 0 по сезону 985.0 962.3 3
штиль 0
{1}
9000 м дождь 10/10 660 м
[]
+1.1 +1.0 99 -0 -0 по сезону 984.8 962.1 1
штиль 0
{2}
3400 м слаб. дождь со снегом ?/? +0.6 +0.5 99 -1 -1 по сезону 984.9 962.2 1
штиль 0
{1}
3400 м слаб. снег {дождь} ?/? +0.2 +0.1 99 -1 -1 по сезону 985.1 962.4 +0.1 +2.1 1
штиль 0
{1}
4200 м слаб. снег ?/? +0.1 0.0 99 -1 -1 по сезону 985.5 962.7 1
штиль 0
{1}
7000 м слаб. снег {дождь} ?/? +0.3 +0.1 99 -1 -1 по сезону 985.9 963.1 0.5
З 1
{3}
3100 м слаб. снег {дождь} ?/? +0.4 +0.3 99 -2 -2 по сезону 986.4 963.6 0.5
штиль 0 9000 м слаб. снег {дождь} 10/3 210 м
[]
+0.5 +0.4 99 -1 -1 по сезону 986.8 964.0 0.1
штиль 0
{2}
30 км слаб. снег {дождь} ?/? +0.8 +0.7 99 -1 -1 по сезону 987.2 964.4 0.1
З 2
{4}
3800 м слаб. снег {дождь} ?/? +0.6 +0.4 99 -3 -3 прохладно 988.1 965.3 0.1
З 2 10 км слаб. снег ?/? +0.5 +0.4 99 -3 -3 прохладно 989.0 966.2 0.6
З 1
{4}
50 км в посл. час снег {ливн. осадки} ?/? +0.5 +0.3 99 -2 -2 по сезону 990.0 967.1
штиль 0
{2}
50 км {ливн. осадки, снег} 6/1 2000 м
[]
-0.5 -0.8 98 -2 -2 по сезону 990.9 968.0
штиль 0 35 км {ливн. осадки, снег} ясно -1.0 -1.0 100 -2 -2 по сезону 991.4 968.5
штиль 0 50 км {ливн. осадки, снег} 4/4 270 м
[]
-0.8 -1.0 99 -2 -2 по сезону 992.6 969.6
штиль 0 50 км {ливн. осадки, снег} ясно -2.0 -2.3 98 -3 -3 прохладно 993.6 970.6 -2.0 +0.8
штиль 0 28 км ясно -2.4 -2.4 100 -4 -4 прохладно 994.0 970.9
штиль 0 23 км {дымка} ясно -3.5 -3.6 99 -5 -5 холодно 994.1 971.0
штиль 0 17 км {дымка} ясно -4.0 -4.4 97 -5 -5 холодно 994.7 971.5
штиль 0 50 км {дымка} ясно -5.0 -5.6 96 -6 -6 холодно 994.7 971.5
штиль 0 50 км {дымка} ясно -5.6 -6.3 95 -7 -7 холодно 994.9 971.7
штиль 0
{1}
50 км ясно -6.3 -6.9 95 -7 -7 холодно 994.8 971.5
штиль 0
{1}
50 км ясно -7.0 -7.8 94 -8 -8 очень
холодно
994.2 970.9
штиль 0
{1}
50 км 3/3 60 м
[]
-7.5 -8.4 93 -8 -8 очень
холодно
993.8 970.5
штиль 0
{1}
50 км ясно -7.4 -8.2 94 -8 -8 очень
холодно
992.7 969.4
штиль 0
{1}
50 км 10/9
[]
-7.5 -8.3 94 -8 -8 очень
холодно
991.7 968.4
штиль 0
{1}
50 км 10/10 2000 м
[]
-6.2 -6.8 96 -7 -7 холодно 990.2 967.0
штиль 0 50 км 10/10 1500 м
[]
-5.2 -5.7 96 -6 -6 холодно 988.7 965.6 -7.7 -1.8
штиль 0
{1}
50 км 10/6 1200 м
[]
-4.0 -4.5 96 -5 -5 холодно 987.0 964.0
штиль 0
{1}
700 м снег ?/? -2.8 -3.2 97 -4 -4 прохладно 984.8 961.9 1
В 2
{5}
800 м снег 1/0
[]
-2.1 -2.5 97 -6 -6 холодно 981.9 959.1 2
ЮВ 2
{6}
700 м снег ?/? -1.1 -1.3 99 -5 -5 холодно 978.7 956.0 2
ЮВ 1
{5}
1000 м снег ?/? -0.6 -0.8 99 -3 -3 прохладно 976.2 953.6 3
В 1
{3}
3200 м слаб. дождь со снегом 10/10 210 м
[]
+0.3 +0.1 99 -2 -2 по сезону 973.8 951.3 0.7
Ю 1
{3}
5000 м слаб. дождь {морось} 10/10 180 м
[]
+0.7 +0.6 99 -1 -1 по сезону 971.6 949.1 0.4
Ю 2
{4}
1700 м дождь {морось} 10/9 150 м
[]
+1.4 +1.2 99 -2 -2 по сезону 969.8 947.5 1
ЮЗ 2
{5}
16 км дождь {морось} ?/? +2.7 +2.5 99 -1 -1 по сезону 969.4 947.1 3
ЮЗ 4
{10}
50 км в посл. час дождь {ливн. осадки} 10/9 360 м
[]
+4.3 +3.5 95 -0 -0 по сезону 970.0 947.9
ЮЗ 4
{9}
50 км {ливн. осадки, дождь} 9/5 400 м
[]
+3.4 +2.1 91 -1 -1 по сезону 971.1 948.8
штиль 0
{6}
21 км {ливн. осадки, дождь} 10/8 500 м
[]
+2.5 +1.3 92 +1 +1 по сезону 972.1 949.8 +4.4
штиль 0
{4}
15 км 10/8 480 м
[]
+1.6 +1.2 97 0 0 по сезону 972.5 950.1
СВ 1
{4}
20 км {дымка} 10/10 480 м
[]
+1.3 +1.2 99 -1 -1 по сезону 972.7 950.2
ЮЗ 4
{8}
35 км {дымка} 10/10 500 м
[]
+3.4 +1.7 89 -1 -1 по сезону 972.6 950.3
ЮЗ 3
{8}
26 км {дымка} 10/10 540 м
[]
+3.5 +1.8 89 -0 -0 по сезону 972.9 950.6
ЮЗ 3
{10}
21 км {дымка} 10/10 570 м
[]
+3.4 +1.8 89 -1 -1 по сезону 973.1 950.8
ЮЗ 4
{8}
19 км 10/10 540 м
[]
+3.3 +1.7 89 -1 -1 по сезону 973.4 951.1
Ю 3
{8}
20 км 10/10 500 м
[]
+3.5 +1.7 88 -0 -0 по сезону 973.7 951.4
Ю 3
{7}
21 км 10/10 500 м
[]
+3.5 +1.7 88 -0 -0 по сезону 973.9 951.6
ЮЗ 2
{6}
25 км 10/10 540 м
[]
+3.9 +1.7 86 +1 +1 по сезону 974.2 951.9
ЮЗ 2
{5}
23 км 10/10 570 м
[]
+3.8 +1.7 86 +1 +1 по сезону 974.8 952.5
Ю 1
{5}
22 км 10/10 540 м
[]
+3.0 +1.4 89 +1 +1 по сезону 975.2 952.9
Ю 2 20 км 10/9 540 м
[]
+3.0 +1.8 92 -0 -0 по сезону 975.9 953.5 +0.9 +4.0
Ю 1
{5}
35 км 10/10 570 м
[]
+3.9 +1.9 87 +2 +2 по сезону 976.6 954.3
ЮЗ 1
{2}
8000 м слаб. дождь 10/10 500 м
[]
+2.7 +1.8 94 +1 +1 по сезону 977.9 955.5 0.3
штиль 0
{2}
1600 м дождь 10/8 360 м
[]
+1.7 +1.5 99 0 0 по сезону 979.2 956.6 2
штиль 0 2700 м дождь 10/1 270 м
[]
+2.4 +2.3 99 +1 +1 по сезону 980.1 957.5 1
С 2
{7}
3700 м слаб. снег {дождь} ?/? +0.4 -0.4 94 -3 -3 прохладно 981.6 958.9 2
С 2
{6}
12 км слаб. снег {дождь} ?/? 0.0 -0.9 94 -4 -4 прохладно 983.0 960.2 0.1
С 1
{6}
2600 м слаб. снег ?/? -0.3 -1.3 93 -2 -2 по сезону 984.5 961.7 0.1
С 1
{4}
50 км в посл. час снег {метель} 10/1 900 м
[]
-0.4 -2.2 88 -2 -2 по сезону 986.2 963.4
С 2
{6}
50 км {снег, метель} 10/6 1470 м
[]
-0.6 -3.4 81 -4 -4 прохладно 987.9 965.0
С 1
{7}
45 км {снег, метель} 10/10 2000 м
[]
-0.9 -3.2 84 -3 -3 прохладно 989.9 967.0
С 2
{5}
50 км {снег, метель} 10/10
[]
-1.0 -3.6 82 -5 -5 холодно 991.7 968.7
С 2
{7}
50 км {снег, метель} 10/9
[]
-1.0 -4.8 75 -5 -5 холодно 993.4 970.4 -1.1 +4.2
С 1
{6}
50 км 10/4
[]
-1.3 -5.2 75 -3 -3 прохладно 995.5 972.4
С 2
{7}
30 км 10/10
[]
-1.5 -6.4 69 -5 -5 холодно 997.7 974.5
С 1
{5}
29 км 4/0
[]
-2.5 -6.9 72 -4 -4 прохладно 999.9 976.7
штиль 0
{4}
50 км ясно -3.7 -7.8 73 -5 -5 холодно 1002.0 978.7
штиль 0
{1}
50 км ясно -4.7 -7.5 81 -6 -6 холодно 1003.4 980.0
штиль 0 50 км ясно -6.3 -7.4 92 -7 -7 холодно 1005.3 981.8
ЮЗ 1
{2}
50 км ясно -6.6 -7.7 92 -9 -9 очень
холодно
1007.0 983.4
СВ 1
{2}
50 км ясно -7.9 -8.8 93 -10 -10 очень
холодно
1008.3 984.6
штиль 0
{2}
50 км ясно -7.6 -8.5 93 -8 -8 очень
холодно
1008.8 985.1
штиль 0
{2}
50 км ясно -8.1 -9.0 93 -9 -9 очень
холодно
1009.6 985.8
штиль 0
{2}
50 км ясно -9.1 -10.3 91 -10 -10 очень
холодно
1011.2 987.4
штиль 0
{1}
50 км ясно -9.4 -10.4 92 -10 -10 очень
холодно
1012.2 988.3 -9.4 -1.0
штиль 0
{1}
50 км ясно -10.2 -11.4 91 -11 -11 очень
холодно
1013.3 989.4
штиль 0
{1}
50 км ясно -10.7 -11.9 91 -11 -11 очень
холодно
1014.4 990.4
штиль 0
{1}
45 км ясно -10.3 -11.6 90 -11 -11 очень
холодно
1014.6 990.7
штиль 0
{1}
35 км ясно -9.1 -10.4 90 -10 -9 очень
холодно
1014.9 991.0
штиль 0
{1}
50 км ясно -6.0 -8.5 82 -7 -6 холодно 1014.8 991.1
штиль 0
{1}
45 км ясно -5.3 -7.9 82 -6 -6 холодно 1014.7 991.0
штиль 0
{1}
50 км ясно -6.9 -8.0 92 -8 -8 очень
холодно
1014.2 990.5
Местоположение метеостанции Густавсфорс (Швеция): широта 60.15 долгота 13.80 высота над уровнем моря 188 м.
В архиве по умолчанию представлена погода в Густавсфорсе за последнюю неделю. Архивные данные за месяц целиком и за предыдущие месяцы, начиная с января 2011 года, Вы можете получить, выбрав интересующий диапазон дат из раскрывающегося списка и нажав кнопку "Найти!".
*Определитесь, кто Вы:
Внимание! Время в таблицах - всемирное. Для получения местного времени необходимо прибавить поправку, которая равна 1 ч.
Смотрите также архив погоды в соседних городах и на ближайших метеорологических станциях:
Партнеры нашего сайта:      
Пояснения к столбцам:
  • Ветер - указаны скорость ветра в м/с - средняя за 10 мин, порывы в срок и между сроками (в фигурных скобках) и направление, откуда дует ветер: С - северный,
  • СВ - северо-восточный, В - восточный, ЮВ - юго-восточный, Ю - южный, ЮЗ - юго-западный, З - западный, СЗ - северо-западный.
  • Видимость - горизонтальная дальность видимости в метрах или километрах. При видимости от 1 до 10 км при отсутствии осадков обычно наблюдается дымка, при ухудшении видимости до 1 км и менее - туман. В сухую погоду видимость может ухудшаться дымом, пылью или мглою.
  • Явления - указаны атмосферные явления, наблюдавшиеся в срок или в последний час перед сроком; фигурными скобками обозначены явления, наблюдавшиеся между сроками (за 1-3 часа до срока); квадратными скобками обозначены град или гололедные отложения с указанием их диаметра в мм.
  • Облачность - указаны через наклонную черту общая и нижняя облачность в баллах и высота нижней границы облаков в метрах; квадратными скобками обозначены формы облаков: Ci - перистые, Cs - перисто-слоистые, Cc - перисто-кучевые, Ac - высококучевые, As - высокослоистые, Sc - слоисто-кучевые, Ns - слоисто-дождевые, Cu - кучевые, Cb - кучево-дождевые. Подробнее классификацию облаков см. в Атласе облаков (PDF).
  • T - Температура воздуха - температура, измеренная на высоте 2 м над землей.
  • Td - Температура точки росы - температура, при понижении до которой содержащийся в воздухе водяной пар достигнет насыщения.
  • f - Относительная влажность воздуха - влажноcть воздуха, измеренная на высоте 2 м над землей.
  • Te - Эффективная температура - температура, которую ощущает одетый по сезону человек в тени. Характеристика душности погоды. При расчете учитывается влияние влажности воздуха и скорости ветра на теплоощущения человека.
  • Tes - Эффективная температура на солнце - температура, которую ощущает человек, с поправкой на солнечный нагрев. Характеристика знойности погоды. Зависит от высоты солнца над горизонтом, облачности и скорости ветра. Ночью, в пасмурную погоду, а также при ветре 12 м/с и более поправка равна нулю.
  • P - Атмосферное давление - приведенное к уровню моря атмосферное давление.
  • Po - Атмосферное давление - измеренное на уровне метеостанции атмосферное давление.
  • Tmin - Минимальная температура - минимум температуры воздуха на высоте 2 м над землей.
  • Tmax - Максимальная температура - максимум температуры воздуха на высоте 2 м над землей.
  • R - Количество осадков - Количество выпавших осадков за период времени, мм. При наведении курсора мыши на число - период времени, за который выпало указанное количество осадков.
  • R24 - Количество осадков - Количество выпавших осадков за 24 часа, мм.
  • S - Снежный покров - Высота снежного покрова, см. При наведении курсора мыши на число - состояние снежного покрова и степень покрытия местности в баллах.